Location: C Hobson Dunn Lake Number 2
(33.1851°N, 97.3486°W)
Time: 02:43:35
(UTC+00:00)

Daily predictions for brighter satellites

Satellite Brightness Start Highest point End
(mag) Time Altitude Azimuth Time Altitude Azimuth Time Altitude Azimuth
Cosmos 2237 Rocket 3.5 01:50:54 10° SW 01:56:21 47° WNW 02:01:50 10° N
SL-24 R/B - RUBIN 2 4.4 01:51:15 10° SSW 01:57:04 82° ESE 02:03:34 10° NNE
Cosmos 1782 2.8 01:56:25 10° S 02:00:06 53° E 02:03:49 10° NNE
BREEZE-M DEB (TANK) 4.0 01:58:05 10° W 02:00:59 44° NNW 02:05:33 10° NE
OAO 2 Rocket 3.5 01:59:44 10° W 02:05:03 78° N 02:10:18 10° E
Meteor 2-14 Rocket 4.5 01:59:10 10° S 02:05:18 80° E 02:11:26 10° N
H-2A R/B 0.8 02:03:56 10° SW 02:05:38 21° S 02:06:29 14° SE
Okean O Rocket 2.5 02:02:21 10° SE 02:06:18 33° ENE 02:10:15 10° N
Cosmos-2242 2.9 02:03:11 10° S 02:07:22 82° E 02:11:36 10° N
USA 290 4.2 02:10:49 10° NNE 02:12:46 15° ENE 02:14:20 11° E
Aureole 2 3.8 02:13:27 10° NNW 02:16:18 80° ENE 02:19:08 11° SSE
Feng Yun 1-1 Rocket 4.4 02:14:12 10° SSE 02:20:02 70° ENE 02:25:55 10° N
Cosmos 972 4.5 02:18:06 10° SSW 02:23:01 82° WNW 02:27:56 10° NNE
DELTA 2 DEB (DPAF) 4.0 02:19:06 10° NNE 02:23:21 89° SE 02:27:33 10° SSW
SL-8 R/B 4.1 02:21:19 10° WSW 02:26:01 67° NW 02:30:45 10° NE
Cosmos 1943 Rocket 2.2 02:20:45 10° NNW 02:26:26 82° ENE 02:31:46 11° SSE
SPOT 1/Viking Rocket 4.1 02:23:01 10° S 02:28:06 59° W 02:33:12 10° NNW
FALCON 9 R/B 2.6 02:33:03 10° W 02:36:58 79° N 02:49:16 10° E
Cosmos 192 4.5 02:32:14 10° NNW 02:37:10 76° WSW 02:41:49 11° S
Cosmos 2221 2.9 02:36:34 15° SSE 02:39:49 44° E 02:43:55 10° NNE
CZ-4B R/B 3.5 02:36:27 10° S 02:41:47 64° WSW 02:47:03 10° NNW
ATLAS 3B R/B 3.3 02:36:07 10° NNW 02:43:47 53° NE 02:48:59 21° SE
USA 186 3.4 02:43:06 10° SSW 02:45:55 32° W 02:48:50 10° NNW
Okean-O 3.0 02:43:48 23° SE 02:46:10 46° ENE 02:50:24 10° N
Cosmos 2278 Rocket 3.6 02:41:22 10° NW 02:46:28 35° WSW 02:51:32 10° SSW
Centaur D AC-29 2.7 02:42:40 10° SW 02:46:34 36° SSE 02:57:34 10° E
Cosmos 1464 Rocket 4.0 02:41:01 10° N 02:47:18 90° W 02:53:28 10° S
ATLAS 5 CENTAUR R/B 4.2 02:43:35 10° WNW 02:48:16 26° WSW 02:53:37 10° SSW
CZ-4C R/B 3.2 02:45:51 10° NNE 02:49:41 69° ESE 02:53:10 13° S
CARTOSAT-1 3.9 02:46:38 12° S 02:50:32 64° W 02:54:47 10° NNW
Meteor 1-26 Rocket 4.4 02:50:56 10° S 02:56:58 83° W 03:03:02 10° N
Cosmos 2297 4.5 02:52:21 10° N 02:57:37 37° ENE 03:00:02 26° ESE
Cosmos 921 Rocket 3.0 02:53:46 10° S 02:58:12 82° ESE 03:02:42 10° NNE
Cosmos 1371 Rocket 4.4 02:55:14 10° N 03:00:26 49° ENE 03:02:41 30° SE
OAO 3 Copernicus 4.2 02:55:36 10° WNW 03:00:38 74° SSW 03:02:55 32° ESE
Lacrosse 5 2.0 02:58:23 10° NNW 03:03:28 65° NE 03:05:39 33° ESE
Cosmos 1378 4.4 03:00:55 10° SSW 03:03:57 34° W 03:06:58 10° NNW
MOS 1 4.3 03:01:43 26° SSE 03:04:57 68° ENE 03:10:34 10° N
Cosmos 1420 Rocket 4.0 03:03:33 10° NNW 03:08:52 74° ENE 03:11:13 34° SSE
OAO 1 4.5 03:04:56 10° WSW 03:10:20 63° SSE 03:13:34 24° E
Terra 2.8 03:11:35 27° E 03:12:17 29° ENE 03:16:18 10° NNE
SL-16 R/B 3.9 03:10:53 10° SW 03:15:58 34° WNW 03:21:07 10° N
IRS-1A Rocket 4.4 03:16:28 36° SE 03:18:36 58° ENE 03:24:04 10° N
Cosmos 1603 4.1 03:17:41 38° SE 03:18:37 41° ESE 03:23:54 10° NE
USA 308 4.2 03:16:52 10° W 03:19:05 19° SW 03:19:18 19° SW
Cosmos 1743 2.9 03:15:53 10° N 03:19:07 48° ENE 03:19:07 48° ENE
Meteor 2-6 Rocket 4.1 03:16:48 24° S 03:20:21 78° E 03:25:53 10° N
Spot 2 Rocket 4.3 03:20:06 31° E 03:20:52 32° ENE 03:25:18 10° N
Cosmos 1634 Rocket 4.1 03:15:08 10° N 03:21:16 55° E 03:23:26 38° SE
GEOS 3 Rocket 3.5 03:16:16 10° NE 03:21:21 64° ESE 03:26:04 12° SSW
SPOT 5 2.6 03:21:11 46° SSE 03:22:32 77° ENE 03:27:02 10° N
Resurs 01 Rocket 3.8 03:23:40 10° SSW 03:27:05 22° W 03:30:31 10° NW
NOSS 3-1 (A) 4.3 03:22:14 10° NW 03:30:15 75° WSW 03:35:18 31° SSE
Cosmos 2369 Rocket 2.4 03:27:51 10° N 03:33:22 55° ENE 03:34:31 46° ESE
Cosmos 1726 4.1 03:35:51 10° NNE 03:36:42 16° NNE 03:36:42 16° NNE
Okean 3 Rocket 3.9 03:35:58 10° N 03:39:52 51° ENE 03:39:52 51° ENE
Cosmos 1842 Rocket 3.5 03:40:11 68° SSW 03:40:45 86° W 03:45:12 10° N
Okean O Rocket 4.0 03:39:37 10° SW 03:42:35 18° W 03:45:33 10° NW
Ariane Rocket 3.1 03:43:07 52° E 03:43:28 54° ENE 03:48:24 10° N
BREEZE-M DEB (TANK) 4.4 03:20:07 10° SW 03:45:17 90° S 03:50:12 10° NE
USA 229 DEB 4.3 03:38:12 10° NNW 03:45:44 57° ENE 03:48:32 40° ESE
USA 229 4.3 03:38:18 10° NNW 03:45:50 56° ENE 03:48:38 39° ESE
ARGOS Delta rocket 3.8 03:46:25 65° SSE 03:47:12 87° E 03:52:10 10° N
OAO 2 Rocket 3.6 03:44:36 10° W 03:49:36 52° SSW 03:49:36 52° SSW
Cosmos 1656 Rocket 3.6 03:44:49 10° NNW 03:50:18 76° WSW 03:51:20 58° S
Meteor 1-27 Rocket 4.0 03:51:15 46° E 03:51:15 46° E 03:56:06 10° NNE
Cosmos 468 4.5 03:54:01 51° SSW 03:55:21 79° WNW 04:00:34 10° NNE
Cosmos 1943 3.8 03:50:09 10° SW 03:55:42 54° WNW 04:01:16 10° N
Cosmos 2056 Rocket 4.3 03:51:16 10° NNW 03:56:22 46° WSW 03:57:41 38° SW
Aureole 3 Rocket 4.5 03:53:31 10° NNW 03:57:50 43° W 04:00:10 29° SW
Cosmos 1452 Rocket 4.0 03:55:19 10° N 04:00:07 47° ENE 04:00:07 47° ENE
Cosmos 2142 Rocket 4.4 03:56:33 10° N 04:02:54 69° E 04:03:39 63° SE
Cosmos 2084 4.4 04:01:59 10° NW 04:04:31 38° WNW 04:04:31 38° WNW
Cosmos 44 4.1 04:04:04 10° NW 04:08:06 37° WSW 04:08:06 37° WSW
ERS-1 Rocket 3.6 04:15:22 47° WSW 04:15:42 47° W 04:20:33 10° NNW
Meteor 2-9 Rocket 4.5 04:14:37 10° N 04:20:00 59° ENE 04:20:00 59° ENE
USA 59 Rocket 2.6 04:28:53 10° NNE 04:30:54 14° NE 04:30:54 14° NE
MOS 1 Rocket 4.0 04:34:16 53° WNW 04:34:16 53° WNW 04:38:50 10° NNW
ATLAS 3B R/B 4.1 04:27:38 10° NW 04:34:08 30° WSW 04:36:15 26° SW
USA 281 3.0 04:36:16 81° ESE 04:36:32 83° ENE 04:43:08 10° NNW
Lacrosse 5 4.2 04:43:03 10° W 04:44:52 14° WSW 04:44:52 14° WSW
Terra 3.7 04:50:17 22° W 04:50:17 22° W 04:53:30 10° NW
Meteor 1-11 Rocket 4.4 04:47:40 10° NNW 04:52:46 49° W 04:52:46 49° W
Nadezhda 4 Rocket 4.4 04:54:10 55° W 04:54:24 55° W 05:00:29 10° N
Chandra Rocket (1) 3.9 04:51:52 10° W 05:08:13 58° SW 05:08:13 58° SW
CZ-3 Stage 3 3.8 04:43:07 10° WSW 05:15:42 64° S 05:16:07 64° SSE
Cosmos 2369 Rocket 4.4 05:13:39 10° WNW 05:16:18 15° W 05:16:18 15° W
USA 267 3.6 05:46:51 10° NE 05:52:17 61° N 05:52:17 61° N
Lacrosse 4 Rocket 4.4 06:05:28 10° NNW 06:05:57 13° NNW 06:05:57 13° NNW
Cosmos 1697 Rocket 4.2 06:07:16 10° N 06:10:50 31° NNE 06:10:50 31° NNE
Cosmos 1980 Rocket 4.2 06:15:15 10° N 06:19:10 21° NE 06:19:10 21° NE
USA 59 Rocket 2.7 06:16:21 10° NW 06:17:27 18° NW 06:17:27 18° NW
Cosmos 2082 Rocket 3.4 06:54:16 38° NNE 06:54:16 38° NNE 06:57:43 10° NNE
Resurs 1-4 Rocket 4.2 07:17:43 10° NE 07:20:14 18° ENE 07:20:14 18° ENE
Cosmos 1745 Rocket 4.2 07:47:13 64° NE 07:47:13 64° NE 07:52:45 10° NNE
NOSS 3-4 (A) 3.9 07:49:49 10° NW 07:56:34 70° W 07:56:34 70° W
NOSS 3-4 (C) 3.9 07:49:56 10° NW 07:56:42 71° W 07:56:42 71° W
NPP 4.3 07:52:12 10° NNE 07:56:33 50° ENE 07:56:33 50° ENE
ATLAS CENTAUR R/B 3.9 07:47:23 10° NW 07:59:31 63° WSW 07:59:39 63° WSW
Cosmos 1980 Rocket 3.7 07:58:13 10° NNW 08:00:53 27° NW 08:00:53 27° NW
SJ 16-02 3.2 08:06:53 26° ENE 08:06:53 26° ENE 08:09:18 10° NE
USA 234 3.2 08:05:25 52° ESE 08:07:11 80° NE 08:13:44 10° NW
ADEOS II 3.3 08:03:09 10° NE 08:07:43 32° E 08:07:43 32° E
IDEFIX/ARIANE 42P 2.9 08:07:08 10° NNE 08:11:29 62° NNE 08:11:29 62° NNE
Nadezhda 1 Rocket 3.9 08:10:19 10° N 08:16:37 85° WNW 08:16:37 85° WNW
CZ-2C R/B 3.3 08:26:18 10° NNE 08:32:05 68° E 08:32:29 65° SE
SL-16 R/B 2.4 08:28:59 10° NNW 08:34:38 65° ENE 08:36:03 48° SE
Cosmos 2082 Rocket 4.5 08:36:05 11° WNW 08:36:47 11° NW 08:38:33 10° NW
Cosmos 968 Rocket 3.8 08:41:59 54° NW 08:41:59 54° NW 08:46:27 10° N
AQUA 4.1 08:39:13 10° NNE 08:43:53 59° E 08:43:53 59° E
CZ-2D R/B 2.2 08:42:26 10° N 08:47:49 63° WNW 08:47:51 63° WNW
CRYOSAT 2 4.3 08:42:59 10° N 08:47:45 85° NNE 08:47:45 85° NNE
Cosmos 1709 Rocket 4.2 08:48:17 53° W 08:48:36 53° W 08:54:48 10° N
BREEZE-M R/B 4.1 08:47:03 38° WNW 08:48:43 52° NNW 09:01:22 10° NE
SL-16 R/B 3.3 08:46:58 12° SE 08:52:30 50° ENE 08:58:31 10° N
Meteor 1-24 Rocket 3.9 08:51:31 55° SSE 08:52:54 78° E 08:58:56 10° N
DELTA 2 R/B (1) 4.4 08:49:49 17° WNW 08:53:53 47° N 08:59:14 10° E
OAO 3 Rocket 3.3 08:54:36 69° NW 08:55:01 74° N 08:59:54 10° E
Cosmos 2237 4.0 08:49:20 10° NNW 08:55:03 72° WSW 08:55:27 69° SW
Cosmos 2360 Rocket 3.2 08:50:51 10° N 08:56:16 45° ENE 09:01:40 10° SE
Cosmos 841 Rocket 4.3 08:52:38 10° NNW 08:56:15 37° WNW 08:56:15 37° WNW
Cosmos 2242 Rocket 4.5 09:00:35 38° NW 09:00:35 38° NW 09:03:55 10° N
Resurs 1-4 Rocket 2.6 08:56:20 10° N 09:01:15 42° WNW 09:01:18 42° WNW
Cosmos 2181 Rocket 4.2 08:55:01 10° N 09:01:19 67° E 09:04:59 26° SSE
SL-4 R/B 2.2 09:06:31 68° NNW 09:06:31 68° NNW 09:10:48 10° NE
Tiangong -0.2 09:08:06 29° ENE 09:08:06 29° ENE 09:09:46 10° ENE
FENGYUN 3A 3.7 09:07:23 10° N 09:12:40 61° WNW 09:13:35 52° WSW
CZ-2C R/B 2.7 09:15:09 48° W 09:15:09 48° W 09:20:08 10° NNW
IRAS Rocket 4.1 09:10:34 10° NNE 09:16:04 90° WNW 09:17:50 45° SSW
Cosmos 2278 4.4 09:11:21 10° NW 09:15:52 36° W 09:15:52 36° W
Cosmos 2098 Rocket 3.8 09:12:17 10° N 09:17:53 86° W 09:21:18 29° S
SL-8 R/B 3.6 09:15:05 10° NW 09:19:52 90° SW 09:24:39 10° SE
Cosmos 1674 Rocket 3.5 09:20:36 53° S 09:21:36 81° E 09:26:04 10° N
SL-24 R/B 4.4 09:21:52 53° SW 09:22:34 58° W 09:27:19 10° NNW
Lacrosse 5 rocket 1.2 09:20:26 10° NW 09:24:25 79° NE 09:28:11 10° SE
Cosmos 1814 Rocket 3.9 09:21:24 10° NNW 09:26:39 79° WSW 09:29:48 25° S
Okean 2 Rocket 3.7 09:22:32 10° N 09:26:51 54° E 09:30:06 17° SSE
Cosmos 2333 Rocket 2.3 09:24:33 10° NNW 09:30:18 82° ENE 09:36:03 10° SSE
Cosmos 405 Rocket 3.6 09:30:27 10° N 09:33:55 44° E 09:36:44 15° SSE
Cosmos 2322 Rocket 2.2 09:28:26 10° NNW 09:33:59 61° WSW 09:37:44 21° S
Cosmos 1295 Rocket 4.4 09:30:42 29° S 09:34:01 83° W 09:40:08 10° N
Meteor 2-5 Rocket 4.3 09:32:53 36° WSW 09:34:32 44° WNW 09:40:11 10° N
Cosmos 2297 Rocket 4.2 09:31:20 10° SSE 09:35:39 23° E 09:39:59 10° NE
ATLAS CENTAUR R/B 1.5 09:36:07 41° SSE 09:36:47 47° ESE 09:40:10 10° NE
Cosmos 1378 Rocket 3.7 09:38:01 45° WSW 09:38:39 49° W 09:42:49 10° N
Cosmos 1486 Rocket 4.2 09:36:16 27° S 09:39:08 69° ESE 09:44:18 10° NNE
OAO 1 Rocket 4.5 09:37:31 29° W 09:40:15 78° N 09:45:33 10° E
ALOS 2.7 09:38:10 10° N 09:42:34 44° WNW 09:43:48 36° WSW
SJ 16-02 3.2 09:43:39 16° WNW 09:43:48 16° WNW 09:46:26 10° NNW
ADEOS II 3.3 09:43:02 10° NNW 09:47:14 25° WNW 09:48:35 22° W
Cosmos 2074 Rocket 4.2 09:47:32 28° SW 09:50:38 50° W 09:56:39 10° N
Meteor 1-28 Rocket 4.2 09:51:23 26° WNW 09:51:23 26° WNW 09:53:49 10° NW
Okean 1 Rocket 3.3 09:48:22 10° N 09:52:40 66° E 09:56:56 10° SSE
UNK 3.7 09:51:38 17° S 09:55:07 64° WSW 09:59:44 10° NNW
COSMOS 2455 4.0 09:51:05 10° S 09:56:33 38° ESE 10:02:03 10° NE
METEOR-M 4.1 09:52:53 10° N 09:58:14 77° WNW 10:02:09 19° SSW
CZ-2C R/B 2.4 09:54:22 10° NNE 09:59:04 73° ESE 10:02:57 14° S
IRS-1D 3.9 09:56:56 10° NNE 10:02:13 65° ESE 10:07:25 10° S
Envisat 3.0 09:57:55 10° N 10:02:57 67° WNW 10:06:34 19° SSW
CZ-4C R/B 3.7 10:05:38 10° SSE 10:08:44 21° ESE 10:12:10 10° ENE
Delta 2 Rocket 4.3 10:08:34 21° SW 10:12:15 43° S 10:17:54 10° ESE
RESURS DK-1 2.6 10:08:45 10° NW 10:12:38 44° WSW 10:16:29 10° S
Atlas Centaur 2 2.5 10:14:56 18° SSW 10:16:42 24° SSE 10:19:42 10° ESE
SL-16 R/B 3.9 10:15:32 10° WNW 10:17:48 13° W 10:17:48 13° W
Cosmos 2322 4.1 10:15:02 10° NNW 10:20:43 69° ENE 10:26:20 10° SSE
Cosmos 1825 3.4 10:20:53 18° W 10:21:45 20° WNW 10:24:20 10° NNW
Cosmos 1975 Rocket 3.2 10:18:35 10° S 10:22:52 75° E 10:27:09 10° N
Nadezhda 3 Rocket 4.2 10:20:25 10° NNW 10:26:33 53° W 10:32:37 10° SSW
Cosmos 1892 4.4 10:29:09 13° W 10:30:02 14° WNW 10:31:54 10° NW
Thor Agena Rocket 3.6 10:25:05 10° N 10:30:17 68° WNW 10:35:30 10° SSW
Cosmos 2219 Rocket 2.3 10:25:39 10° NNW 10:31:08 52° WSW 10:36:35 10° S
YAOGAN 6 2.9 10:29:03 10° N 10:32:09 38° WNW 10:34:44 13° SW
SL-24 DEB 4.3 10:28:52 10° N 10:33:17 56° W 10:37:41 10° SSW
SL-16 R/B 3.7 10:32:02 11° SW 10:36:15 21° W 10:40:52 10° NW
Cosmos 2341 Rocket 4.0 10:30:32 10° S 10:36:47 76° W 10:43:02 10° N
OAO 3 Rocket 3.3 10:33:32 10° W 10:38:21 57° SSW 10:43:06 10° ESE
Cosmos 2360 Rocket 3.5 10:35:52 10° NW 10:39:49 20° W 10:43:46 10° SW
DELTA 2 R/B (1) 3.5 10:35:00 10° WNW 10:40:34 82° SSW 10:46:06 10° ESE
COSMOS 2428 2.9 10:35:24 10° NNW 10:41:05 82° ENE 10:46:46 10° SSE
Cosmos 2366 rocket 4.1 10:36:45 10° S 10:43:05 84° W 10:49:29 10° N
Tiangong -0.2 10:40:57 10° WNW 10:43:29 23° NNW 10:46:01 10° NE
ATLAS 2AS CENTAUR R/B 2.6 10:38:35 10° NW 10:45:16 71° WSW 10:51:46 10° SSE
Cosmos 1025 Rocket 4.2 10:42:30 10° SW 10:46:07 26° WNW 10:49:49 10° NNW
Geosat 4.2 10:41:40 10° S 10:46:28 47° WSW 10:51:17 10° NW
ASTEX 1 3.9 10:42:45 10° SSW 10:47:22 40° W 10:51:59 10° NNW
H-2A R/B 2.3 10:45:00 10° NNE 10:50:28 81° ESE 10:55:52 10° S
In-Cosmos 22 Rocket 4.2 10:46:40 10° SSW 10:52:02 65° W 10:57:35 10° N
Cosmos 1455 Rocket 3.1 10:49:28 10° NNW 10:53:45 59° W 10:58:04 10° S
Cosmos 2237 Rocket 4.0 10:49:19 10° N 10:54:37 38° ENE 10:59:50 10° SE
H-2A R/B 4.3 10:52:19 10° NE 10:55:09 29° E 10:57:58 10° SSE
Cosmos 371 Rocket 4.5 10:51:56 10° WSW 10:55:55 26° WNW 10:59:55 10° N
Cosmos 2227 Rocket 2.7 10:50:21 10° S 10:55:55 63° ESE 11:01:32 10° NNE
ARIANE 5 R/B 4.5 10:52:12 10° NE 10:56:34 29° E 11:00:52 10° SSE
DNEPR-1 R/B 4.4 10:54:47 10° NNW 11:01:06 81° ENE 11:06:08 10° SSE
